ASRTU-1 (AO-123)

Last updated on Wed Feb 05 2025 00:03:01 GMT+0000 (Coordinated Universal Time)

1 61781U 24199AY 25035.62282211 .00013887 00000+0 54930-3 0 9997 2 61781 97.3748 265.0166 0015267 282.5554 77.3976 15.25470197 57812
UTC large
Height (km)
Speed (km/s)
/
Latitude / Longitude
Inclination (degrees)
Orbital Period (minutes)
Azimuth
Elevation
Range (km)
Doppler Factor

Next 0 passes for location: London (51.5072 / 0.1276)

Sorry there are no passes over London.